Date String (YYYY-MM-DD hh:mm:ss) UTC,Instrument flags,Ambient pressure (hPa),Sample flow (lpm),Bypass flow (lpm),Sample temperature (°C),Ambient temperature (°C),ASC tube jacket temperature (°C),LED temperature (°C),Box temperature (°C),Sample RH (%),Span deviation,Mass concentration (μg/m³),Mass concentration (μg/m³),Mass concentration (μg/m³)
DateTimeUTC,F1_M11,P_M11,Q1_M11,Q2_M11,T1_M11,T2_M11,T3_M11,T4_M11,T5_M11,U1_M11,ZSPAN_M11,X0_M11,X2_M11,X1_M11
2022-09-26 14:00:00,,0832.7,5.01,0.00,29.1,27.8,00.0,37.8,31.0,17.1,0000.0,0009.92,0005.58,0005.09
2022-09-26 14:01:00,,0832.7,4.99,0.00,29.1,27.8,00.0,37.8,31.0,17.0,0000.0,0010.79,0005.53,0005.01
2022-09-26 14:02:00,,0832.7,5.02,0.00,29.1,27.8,00.0,37.8,31.0,16.9,0000.0,0010.93,0005.46,0004.92
2022-09-26 14:03:00,,0832.7,4.99,0.00,29.1,27.8,00.0,37.8,31.0,16.3,0000.7,0010.91,0005.43,0004.87
2022-09-26 14:04:00,,0832.7,5.01,0.00,29.1,27.8,00.0,37.8,31.1,17.0,0000.5,0010.88,0005.41,0004.86
2022-09-26 14:05:00,,0832.7,4.99,0.00,29.2,27.8,00.0,37.8,31.1,17.7,0000.3,0011.41,0005.41,0004.84
2022-09-26 14:06:00,,0832.7,5.00,0.00,29.2,27.8,00.0,37.8,31.1,17.8,0000.3,0012.28,0005.38,0004.82
2022-09-26 14:07:00,,0832.7,5.00,0.00,29.2,27.8,00.0,37.8,31.1,17.9,0000.3,0012.64,0005.36,0004.79
2022-09-26 14:08:00,,0832.7,5.01,0.00,29.2,27.9,00.0,37.9,31.1,17.7,0000.7,0013.37,0005.38,0004.75
2022-09-26 14:09:00,,0832.8,5.00,0.00,29.2,27.9,00.0,37.9,31.1,17.2,0000.8,0013.38,0005.34,0004.71
2022-09-26 14:10:00,,0832.7,5.01,0.00,29.2,27.9,00.0,37.9,31.1,17.9,0000.0,0013.29,0005.32,0004.68
2022-09-26 14:11:00,,0832.8,4.99,0.00,29.2,27.9,00.0,37.9,31.1,17.8,0000.0,0013.32,0005.36,0004.65
2022-09-26 14:12:00,,0832.8,5.01,0.00,29.2,27.9,00.0,37.9,31.1,17.4,0000.0,0012.78,0005.39,0004.63
2022-09-26 14:13:00,,0832.8,4.99,0.00,29.3,27.9,00.0,37.9,31.2,17.3,0000.0,0013.12,0005.37,0004.61
2022-09-26 14:14:00,,0832.8,4.99,0.00,29.3,27.9,00.0,37.9,31.2,18.1,0000.0,0013.34,0005.35,0004.59
2022-09-26 14:15:00,,0832.8,5.02,0.00,29.3,28.0,00.0,37.9,31.2,18.2,0000.0,0014.40,0005.36,0004.56
2022-09-26 14:16:00,,0832.8,4.99,0.00,29.3,28.0,00.0,38.0,31.2,18.4,0000.0,0014.74,0005.45,0004.55
2022-09-26 14:17:00,,0832.7,5.00,0.00,29.3,28.0,00.0,38.0,31.2,19.8,0000.0,0014.03,0005.51,0004.58
2022-09-26 14:18:00,,0832.7,4.99,0.00,29.3,28.0,00.0,38.0,31.2,19.7,0000.0,0013.51,0005.58,0004.64
2022-09-26 14:19:00,,0832.7,5.01,0.00,29.3,28.0,00.0,38.0,31.3,20.1,0000.0,0013.45,0005.61,0004.70
2022-09-26 14:20:00,,0832.7,5.00,0.00,29.4,28.1,00.0,38.0,31.3,19.7,0000.0,0013.98,0005.66,0004.77
2022-09-26 14:21:00,,0832.7,5.01,0.00,29.4,28.1,00.0,38.0,31.3,19.4,0000.0,0014.56,0005.72,0004.83
2022-09-26 14:22:00,,0832.8,4.99,0.00,29.4,28.1,00.0,38.0,31.3,19.6,0000.0,0014.66,0005.79,0004.91
2022-09-26 14:23:00,,0832.7,5.01,0.00,29.4,28.1,00.0,38.0,31.3,19.3,0000.0,0014.94,0005.81,0004.97
2022-09-26 14:24:00,,0832.7,4.99,0.00,29.4,28.2,00.0,38.1,31.3,19.4,0000.0,0015.56,0005.89,0005.04
2022-09-26 14:25:00,,0832.8,5.01,0.00,29.4,28.2,00.0,38.1,31.3,19.3,0000.0,0016.29,0006.00,0005.13
2022-09-26 14:26:00,,0832.8,4.99,0.00,29.4,28.1,00.0,38.1,31.3,18.6,0000.0,0015.82,0006.04,0005.20
2022-09-26 14:27:00,,0832.7,5.01,0.00,29.4,28.2,00.0,38.1,31.3,18.6,0000.0,0015.38,0006.09,0005.27
2022-09-26 14:28:00,,0832.8,4.99,0.00,29.5,28.2,00.0,38.1,31.4,18.8,0000.0,0016.04,0006.16,0005.33
2022-09-26 14:29:00,,0832.7,5.01,0.00,29.5,28.2,00.0,38.1,31.4,18.9,0000.0,0017.70,0006.30,0005.39
2022-09-26 14:30:00,,0832.7,4.99,0.00,29.5,28.2,00.0,38.1,31.4,18.6,0000.0,0017.45,0006.48,0005.43
2022-09-26 14:31:00,,0832.8,5.00,0.00,29.5,28.2,00.0,38.2,31.4,18.7,0000.0,0017.40,0006.56,0005.46
2022-09-26 14:32:00,,0832.7,5.00,0.00,29.5,28.3,00.0,38.2,31.4,18.3,0000.0,0016.74,0006.60,0005.51
2022-09-26 14:33:00,,0832.8,5.00,0.00,29.5,28.3,00.0,38.2,31.4,18.5,0000.0,0016.70,0006.59,0005.53
2022-09-26 14:34:00,,0832.8,5.02,0.00,29.6,28.3,00.0,38.2,31.5,18.2,0000.0,0016.53,0006.64,0005.57
2022-09-26 14:35:00,,0832.7,4.99,0.00,29.6,28.3,00.0,38.2,31.5,18.2,0000.0,0015.23,0006.70,0005.63
2022-09-26 14:36:00,,0832.7,5.01,0.00,29.6,28.4,00.0,38.2,31.5,18.1,0003.3,0014.42,0006.72,0005.68
2022-09-26 14:37:00,,0832.7,4.99,0.00,29.6,28.4,00.0,38.2,31.5,18.0,0003.4,0014.13,0006.72,0005.71
2022-09-26 14:38:00,,0832.8,5.02,0.00,29.6,28.4,00.0,38.3,31.5,18.0,0003.6,0013.87,0006.68,0005.73
2022-09-26 14:39:00,,0832.7,4.99,0.00,29.6,28.4,00.0,38.3,31.5,18.1,0003.3,0013.03,0006.65,0005.73
2022-09-26 14:40:00,,0832.8,5.01,0.00,29.7,28.4,00.0,38.3,31.5,17.9,0002.9,0011.60,0006.53,0005.73
2022-09-26 14:41:00,,0832.8,5.00,0.00,29.7,28.5,00.0,38.3,31.6,18.0,0002.7,0011.33,0006.42,0005.72
2022-09-26 14:42:00,,0832.8,4.98,0.00,29.7,28.5,00.0,38.3,31.6,18.0,0002.5,0011.12,0006.43,0005.74
2022-09-26 14:43:00,,0832.7,5.02,0.00,29.7,28.5,00.0,38.3,31.6,17.8,0002.1,0011.21,0006.41,0005.73
2022-09-26 14:44:00,,0832.8,4.99,0.00,29.7,28.5,00.0,38.3,31.6,17.8,0002.1,0011.37,0006.44,0005.73
2022-09-26 14:45:00,,0832.8,5.00,0.00,29.7,28.5,00.0,38.4,31.6,17.6,0001.2,0011.42,0006.45,0005.74
2022-09-26 14:46:00,,0832.8,5.00,0.00,29.8,28.5,00.0,38.4,31.7,17.6,0000.0,0011.47,0006.42,0005.72
2022-09-26 14:47:00,,0832.9,4.99,0.00,29.8,28.5,00.0,38.4,31.7,17.8,0000.0,0011.38,0006.40,0005.70
2022-09-26 14:48:00,,0832.9,5.01,0.00,29.8,28.5,00.0,38.4,31.7,17.2,0000.0,0011.17,0006.36,0005.67
2022-09-26 14:49:00,,0832.9,4.99,0.00,29.8,28.6,00.0,38.4,31.7,17.4,0000.0,0011.21,0006.29,0005.64
2022-09-26 14:50:00,,0832.8,5.01,0.00,29.8,28.6,00.0,38.5,31.7,17.7,0000.0,0011.55,0006.28,0005.64
2022-09-26 14:51:00,,0832.8,4.99,0.00,29.8,28.6,00.0,38.5,31.8,17.5,0000.0,0011.95,0006.29,0005.62
2022-09-26 14:52:00,,0832.8,5.01,0.00,29.9,28.6,00.0,38.5,31.7,17.1,0000.0,0011.84,0006.24,0005.59
2022-09-26 14:53:00,,0832.8,5.00,0.00,29.9,28.7,00.0,38.5,31.7,16.8,0000.0,0012.04,0006.21,0005.56
2022-09-26 14:54:00,,0832.9,4.99,0.00,29.9,28.7,00.0,38.5,31.8,17.0,0000.0,0012.54,0006.22,0005.54
2022-09-26 14:55:00,,0832.9,5.01,0.00,29.9,28.7,00.0,38.5,31.8,17.4,0000.0,0012.34,0006.20,0005.53
2022-09-26 14:56:00,,0832.9,5.00,0.00,29.9,28.7,00.0,38.6,31.8,18.1,0000.0,0011.90,0006.15,0005.51
2022-09-26 14:57:00,,0833.0,5.01,0.00,30.0,28.7,00.0,38.6,31.8,18.2,0000.0,0011.76,0006.12,0005.49
2022-09-26 14:58:00,,0832.9,5.00,0.00,30.0,28.8,00.0,38.6,31.9,20.2,0000.0,0012.32,0006.11,0005.48
2022-09-26 14:59:00,,0832.9,5.01,0.00,30.0,28.8,00.0,38.6,31.9,21.9,0000.0,0012.64,0006.16,0005.51
